sat.trackr.live / text

‹ back to catalog

STARLINK-2245

NORAD 48589 · 2021-041AN

PAYLOAD ACTIVE UNKNOWN

§ Identity

Operator
Country
US
Launch date
2021-05-15
Launch site
AFETR
Launch vehicle
Mass (kg)
RCS (m²)

Purposes: comms

External: N2YO · Heavens-Above · Gunter

§ Orbital elements

Epoch: 2026-09-19T20:15:55.435104Z

Period
94.01 min
Inclination
53.1610°
Eccentricity
0.0001409
Mean motion
15.31699896 rev/d
Perigee alt
469.8 km
Apogee alt
471.7 km
Semi-major
6,848.9 km
B*
1.2050e-5
RAAN
303.2227°
Arg perigee
83.6085°
Mean anomaly
276.5077°
Rev number
29,502

§ Raw data

STARLINK-22451 48589U 21041AN  26262.84439161  .00000009  00000+0  12050-4 0  99962 48589  53.1610 303.2227 0001409  83.6085 276.5077 15.31699896295024

JSON: /api/v1/satellites/48589 · /tle

For live sub-satellite position, see the globe view (requires WebGL).

§ Visibility from observer

Set your observer location to see the next 7 days of passes ≥ 10°. The values pass through the URL so the page stays shareable.

No JS? Fill the form by hand. The geolocation button needs JavaScript.